| time (UTC) | temp C | wind direction | speed KPH | gust KPH | rain 1hr cm | rain 24hr cm | rain mn cm | humidity % | barometer mb |
| 20260510044926 | 23 | 167 | 3.2 | 8.0 | 0.00 | 0.08 | 0.08 | 88 | 1012.5 |
| 20260510044426 | 23 | 153 | 3.2 | 8.0 | 0.00 | 0.08 | 0.08 | 88 | 1012.5 |
| 20260510043926 | 23 | 157 | 3.2 | 6.4 | 0.00 | 0.08 | 0.08 | 88 | 1012.5 |
| 20260510043426 | 23 | 150 | 3.2 | 8.0 | 0.00 | 0.08 | 0.08 | 87 | 1012.5 |
| 20260510042925 | 23 | 149 | 3.2 | 8.0 | 0.00 | 0.08 | 0.08 | 87 | 1012.5 |
| 20260510042424 | 24 | 148 | 3.2 | 8.0 | 0.00 | 0.08 | 0.08 | 87 | 1012.6 |
| 20260510041918 | 24 | 153 | 3.2 | 8.0 | 0.00 | 0.08 | 0.08 | 86 | 1012.7 |
| 20260510041413 | 24 | 146 | 3.2 | 6.4 | 0.00 | 0.08 | 0.08 | 86 | 1012.6 |
| 20260510040910 | 24 | 146 | 4.8 | 9.7 | 0.00 | 0.08 | 0.08 | 85 | 1012.7 |
| 20260510040410 | 24 | 120 | 4.8 | 9.7 | 0.00 | 0.08 | 0.08 | 85 | 1012.7 |
| 20260510040133 | 25 | 166 | 4.8 | 9.7 | 0.00 | 0.08 | 0.08 | 85 | 1012.6 |
| 20260510035409 | 25 | 146 | 4.8 | 9.7 | 0.00 | 0.08 | 0.08 | 84 | 1012.6 |
| 20260510034908 | 25 | 155 | 4.8 | 9.7 | 0.00 | 0.08 | 0.08 | 84 | 1012.5 |
| 20260510034408 | 25 | 150 | 4.8 | 11.3 | 0.00 | 0.08 | 0.08 | 84 | 1012.4 |
| 20260510033906 | 25 | 151 | 6.4 | 14.5 | 0.00 | 0.08 | 0.08 | 83 | 1012.3 |
| 20260510033413 | 25 | 143 | 6.4 | 14.5 | 0.00 | 0.08 | 0.08 | 83 | 1012.4 |
| 20260510032911 | 25 | 124 | 6.4 | 11.3 | 0.00 | 0.08 | 0.08 | 83 | 1012.3 |
| 20260510032410 | 25 | 127 | 4.8 | 11.3 | 0.00 | 0.08 | 0.08 | 82 | 1012.1 |
| 20260510031906 | 25 | 148 | 4.8 | 11.3 | 0.00 | 0.08 | 0.08 | 82 | 1012.3 |
| 20260510031406 | 24 | 144 | 3.2 | 11.3 | 0.00 | 0.08 | 0.08 | 82 | 1012.2 |
| 20260510030906 | 24 | 146 | 3.2 | 6.4 | 0.00 | 0.08 | 0.08 | 81 | 1012.1 |
| 20260510030406 | 24 | 143 | 3.2 | 6.4 | 0.00 | 0.08 | 0.08 | 79 | 1012.0 |
| 20260510025905 | 25 | 157 | 3.2 | 6.4 | 0.00 | 0.08 | 0.08 | 78 | 1011.9 |
| 20260510025429 | 25 | 156 | 1.6 | 4.8 | 0.00 | 0.08 | 0.08 | 78 | 1011.8 |
| 20260510024904 | 25 | 156 | 1.6 | 4.8 | 0.00 | 0.08 | 0.08 | 77 | 1011.7 |
| 20260510024405 | 25 | 154 | 1.6 | 4.8 | 0.00 | 0.08 | 0.08 | 77 | 1011.7 |
| 20260510023904 | 25 | 153 | 1.6 | 8.0 | 0.00 | 0.08 | 0.08 | 76 | 1011.7 |
| 20260510023404 | 25 | 153 | 3.2 | 8.0 | 0.00 | 0.08 | 0.08 | 76 | 1011.6 |
| 20260510023145 | 25 | 153 | 3.2 | 8.0 | 0.00 | 0.08 | 0.08 | 75 | 1011.5 |
| 20260510022415 | 26 | 153 | 3.2 | 8.0 | 0.00 | 0.08 | 0.08 | 75 | 1011.6 |
| 20260510021904 | 26 | 153 | 3.2 | 8.0 | 0.00 | 0.08 | 0.08 | 74 | 1011.4 |
| 20260510021404 | 26 | 166 | 3.2 | 8.0 | 0.00 | 0.08 | 0.08 | 74 | 1011.4 |
| 20260510020904 | 26 | 146 | 3.2 | 8.0 | 0.00 | 0.08 | 0.08 | 73 | 1011.2 |
| 20260510020405 | 26 | 146 | 4.8 | 11.3 | 0.00 | 0.08 | 0.08 | 73 | 1011.1 |
| 20260510020124 | 26 | 133 | 4.8 | 11.3 | 0.00 | 0.08 | 0.08 | 72 | 1011.1 |
| 20260510015404 | 26 | 122 | 4.8 | 9.7 | 0.00 | 0.08 | 0.08 | 72 | 1011.0 |
| 20260510014904 | 26 | 137 | 4.8 | 9.7 | 0.00 | 0.08 | 0.08 | 72 | 1011.0 |
| 20260510014405 | 26 | 134 | 4.8 | 11.3 | 0.00 | 0.08 | 0.08 | 72 | 1011.0 |
| 20260510013904 | 27 | 116 | 4.8 | 11.3 | 0.00 | 0.08 | 0.08 | 72 | 1010.9 |
| 20260510013405 | 27 | 139 | 6.4 | 12.9 | 0.00 | 0.08 | 0.08 | 72 | 1010.9 |
| 20260510012904 | 27 | 123 | 6.4 | 12.9 | 0.00 | 0.08 | 0.08 | 72 | 1010.8 |
| 20260510012405 | 27 | 147 | 6.4 | 12.9 | 0.00 | 0.08 | 0.08 | 72 | 1010.7 |
| 20260510012124 | 27 | 142 | 4.8 | 11.3 | 0.00 | 0.08 | 0.08 | 72 | 1010.8 |
| 20260510011404 | 27 | 132 | 6.4 | 11.3 | 0.00 | 0.08 | 0.08 | 71 | 1010.7 |
| 20260510010904 | 27 | 128 | 6.4 | 11.3 | 0.00 | 0.08 | 0.08 | 70 | 1010.6 |
| 20260510010405 | 28 | 130 | 6.4 | 11.3 | 0.00 | 0.08 | 0.08 | 70 | 1010.5 |
| 20260510005905 | 28 | 137 | 6.4 | 14.5 | 0.00 | 0.08 | 0.08 | 70 | 1010.5 |
| 20260510005630 | 28 | 129 | 6.4 | 14.5 | 0.00 | 0.08 | 0.08 | 69 | 1010.4 |
| 20260510004905 | 28 | 148 | 6.4 | 14.5 | 0.00 | 0.08 | 0.08 | 69 | 1010.3 |
| 20260510004404 | 28 | 156 | 6.4 | 14.5 | 0.00 | 0.08 | 0.08 | 68 | 1010.3 |
| 20260510003904 | 29 | 153 | 6.4 | 12.9 | 0.00 | 0.08 | 0.08 | 67 | 1010.3 |
| 20260510003404 | 29 | 129 | 6.4 | 12.9 | 0.00 | 0.08 | 0.08 | 66 | 1010.3 |
| 20260510002901 | 29 | 144 | 6.4 | 14.5 | 0.00 | 0.08 | 0.08 | 66 | 1010.2 |
| 20260510002355 | 30 | 0 | 4.8 | 14.5 | 0.00 | 0.08 | 0.08 | 65 | 1010.2 |
| 20260510001850 | 30 | 120 | 6.4 | 14.5 | 0.00 | 0.08 | 0.08 | 64 | 1010.1 |
| 20260510001344 | 30 | 136 | 8.0 | 14.5 | 0.00 | 0.08 | 0.08 | 62 | 1010.1 |
| 20260510000836 | 31 | 121 | 6.4 | 14.5 | 0.00 | 0.08 | 0.08 | 62 | 1010.1 |
| 20260510000554 | 31 | 0 | 3.2 | 14.5 | 0.00 | 0.08 | 0.08 | 62 | 1009.9 |
| 20260509235833 | 31 | 101 | 0.0 | 4.8 | 0.00 | 0.08 | 0.08 | 61 | 1010.0 |
| 20260509235333 | 31 | 101 | 1.6 | 6.4 | 0.00 | 0.08 | 0.08 | 62 | 1010.0 |
| 20260509234834 | 31 | 104 | 3.2 | 9.7 | 0.00 | 0.08 | 0.08 | 60 | 1009.9 |
| 20260509234334 | 31 | 0 | 3.2 | 9.7 | 0.00 | 0.08 | 0.08 | 60 | 1009.9 |
| 20260509233834 | 31 | 79 | 3.2 | 8.0 | 0.00 | 0.08 | 0.08 | 60 | 1009.8 |
| 20260509233332 | 32 | 26 | 3.2 | 4.8 | 0.00 | 0.08 | 0.08 | 59 | 1009.8 |
| 20260509232833 | 32 | 64 | 3.2 | 6.4 | 0.00 | 0.08 | 0.08 | 59 | 1009.8 |
| 20260509232332 | 32 | 63 | 1.6 | 11.3 | 0.00 | 0.08 | 0.08 | 58 | 1009.8 |
| 20260509231832 | 32 | 98 | 1.6 | 11.3 | 0.00 | 0.08 | 0.08 | 58 | 1009.8 |
| 20260509231332 | 32 | 170 | 3.2 | 8.0 | 0.00 | 0.08 | 0.08 | 58 | 1009.8 |
| 20260509230833 | 32 | 171 | 3.2 | 9.7 | 0.00 | 0.08 | 0.08 | 58 | 1009.8 |
| 20260509230332 | 32 | 160 | 3.2 | 9.7 | 0.00 | 0.08 | 0.08 | 59 | 1009.8 |
| 20260509225832 | 33 | 130 | 1.6 | 6.4 | 0.00 | 0.08 | 0.08 | 58 | 1009.8 |
| 20260509225332 | 32 | 322 | 3.2 | 9.7 | 0.00 | 0.08 | 0.08 | 58 | 1009.6 |
| 20260509224832 | 32 | 187 | 3.2 | 9.7 | 0.00 | 0.08 | 0.08 | 60 | 1009.6 |
| 20260509224332 | 32 | 90 | 3.2 | 9.7 | 0.00 | 0.08 | 0.08 | 58 | 1009.8 |
| 20260509223826 | 32 | 90 | 1.6 | 9.7 | 0.00 | 0.08 | 0.08 | 58 | 1009.8 |
| 20260509223319 | 32 | 267 | 1.6 | 4.8 | 0.00 | 0.08 | 0.08 | 58 | 1009.8 |
| 20260509222813 | 32 | 265 | 1.6 | 4.8 | 0.00 | 0.08 | 0.08 | 57 | 1009.8 |
| 20260509222311 | 32 | 264 | 3.2 | 6.4 | 0.00 | 0.08 | 0.08 | 58 | 1009.9 |
| 20260509221812 | 32 | 265 | 1.6 | 6.4 | 0.00 | 0.08 | 0.08 | 58 | 1009.9 |
| 20260509221311 | 32 | 290 | 1.6 | 4.8 | 0.00 | 0.08 | 0.08 | 59 | 1010.1 |
| 20260509220811 | 32 | 298 | 1.6 | 12.9 | 0.00 | 0.08 | 0.08 | 59 | 1010.0 |
| 20260509220309 | 32 | 298 | 4.8 | 12.9 | 0.00 | 0.08 | 0.08 | 59 | 1010.1 |
| 20260509215808 | 31 | 107 | 6.4 | 12.9 | 0.00 | 0.08 | 0.08 | 59 | 1010.0 |
| 20260509215309 | 31 | 120 | 6.4 | 12.9 | 0.00 | 0.08 | 0.08 | 62 | 1010.1 |
| 20260509214807 | 31 | 154 | 4.8 | 14.5 | 0.00 | 0.08 | 0.08 | 62 | 1010.2 |
| 20260509214307 | 31 | 163 | 4.8 | 14.5 | 0.00 | 0.08 | 0.08 | 61 | 1010.1 |
| 20260509213805 | 31 | 133 | 8.0 | 14.5 | 0.00 | 0.08 | 0.08 | 61 | 1010.3 |
| 20260509213305 | 31 | 123 | 4.8 | 14.5 | 0.00 | 0.08 | 0.08 | 62 | 1010.3 |
| 20260509212804 | 31 | 57 | 3.2 | 9.7 | 0.00 | 0.08 | 0.08 | 58 | 1010.4 |
| 20260509212306 | 32 | 111 | 3.2 | 9.7 | 0.00 | 0.08 | 0.08 | 59 | 1010.4 |
| 20260509211805 | 32 | 158 | 3.2 | 9.7 | 0.00 | 0.08 | 0.08 | 62 | 1010.4 |
| 20260509211305 | 31 | 200 | 3.2 | 8.0 | 0.00 | 0.08 | 0.08 | 59 | 1010.5 |
| 20260509210805 | 31 | 81 | 3.2 | 8.0 | 0.00 | 0.08 | 0.08 | 61 | 1010.6 |
| 20260509210304 | 31 | 339 | 3.2 | 8.0 | 0.00 | 0.08 | 0.08 | 60 | 1010.6 |
| 20260509210025 | 31 | 19 | 3.2 | 11.3 | 0.00 | 0.08 | 0.08 | 61 | 1010.6 |
| 20260509205529 | 31 | 336 | 4.8 | 11.3 | 0.00 | 0.08 | 0.08 | 61 | 1010.7 |
| 20260509204756 | 31 | 334 | 4.8 | 11.3 | 0.00 | 0.08 | 0.08 | 62 | 1010.8 |
| 20260509204512 | 31 | 340 | 3.2 | 11.3 | 0.00 | 0.08 | 0.08 | 62 | 1010.9 |
| 20260509203743 | 31 | 28 | 4.8 | 11.3 | 0.00 | 0.08 | 0.08 | 62 | 1010.9 |
| 20260509203236 | 31 | 132 | 4.8 | 11.3 | 0.00 | 0.08 | 0.08 | 62 | 1011.1 |
| 20260509202738 | 31 | 76 | 3.2 | 11.3 | 0.00 | 0.08 | 0.08 | 63 | 1011.2 |
| 20260509202237 | 30 | 72 | 4.8 | 11.3 | 0.00 | 0.08 | 0.08 | 63 | 1011.3 |
| 20260509201738 | 31 | 120 | 6.4 | 12.9 | 0.00 | 0.08 | 0.08 | 62 | 1011.4 |
| 20260509201235 | 30 | 102 | 4.8 | 12.9 | 0.00 | 0.08 | 0.08 | 64 | 1011.4 |
| 20260509200736 | 30 | 38 | 3.2 | 11.3 | 0.00 | 0.08 | 0.08 | 64 | 1011.6 |
| 20260509200500 | 30 | 59 | 4.8 | 11.3 | 0.00 | 0.08 | 0.08 | 62 | 1011.5 |
| 20260509200229 | 30 | 34 | 4.8 | 11.3 | 0.00 | 0.08 | 0.08 | 65 | 1011.5 |
| 20260509195235 | 30 | 17 | 3.2 | 9.7 | 0.00 | 0.08 | 0.08 | 66 | 1011.5 |
| 20260509194956 | 30 | 37 | 3.2 | 8.0 | 0.00 | 0.08 | 0.08 | 66 | 1011.5 |
| 20260509194236 | 29 | 351 | 3.2 | 6.4 | 0.00 | 0.08 | 0.08 | 67 | 1011.6 |
| 20260509193735 | 29 | 39 | 3.2 | 6.4 | 0.00 | 0.08 | 0.08 | 68 | 1011.6 |
| 20260509193236 | 28 | 13 | 3.2 | 11.3 | 0.00 | 0.08 | 0.08 | 68 | 1011.7 |
| 20260509192733 | 28 | 20 | 3.2 | 11.3 | 0.00 | 0.08 | 0.08 | 70 | 1011.7 |
| 20260509192232 | 28 | 36 | 3.2 | 9.7 | 0.00 | 0.08 | 0.08 | 77 | 1011.8 |
| 20260509191732 | 28 | 76 | 3.2 | 9.7 | 0.00 | 0.08 | 0.08 | 76 | 1011.9 |
| 20260509191232 | 27 | 28 | 4.8 | 11.3 | 0.00 | 0.08 | 0.08 | 80 | 1011.9 |
| 20260509190731 | 27 | 36 | 4.8 | 11.3 | 0.03 | 0.08 | 0.08 | 79 | 1012.1 |
| 20260509190231 | 27 | 63 | 4.8 | 11.3 | 0.03 | 0.08 | 0.08 | 83 | 1012.3 |
| 20260509185731 | 27 | 46 | 4.8 | 11.3 | 0.05 | 0.08 | 0.08 | 84 | 1012.3 |
| 20260509185712 | 26 | 13 | 4.8 | 11.3 | 0.08 | 0.08 | 0.08 | 85 | 1012.3 |
| 20260509184731 | 26 | 116 | 4.8 | 11.3 | 0.08 | 0.08 | 0.08 | 84 | 1012.4 |
| 20260509184454 | 25 | 11 | 3.2 | 11.3 | 0.08 | 0.08 | 0.08 | 90 | 1012.4 |
| 20260509183731 | 25 | 94 | 1.6 | 6.4 | 0.08 | 0.08 | 0.08 | 92 | 1012.3 |
| 20260509183453 | 25 | 25 | 1.6 | 6.4 | 0.08 | 0.08 | 0.08 | 90 | 1012.4 |
| 20260509183004 | 24 | 25 | 3.2 | 6.4 | 0.08 | 0.08 | 0.08 | 90 | 1012.6 |
| 20260509182232 | 24 | 0 | 3.2 | 6.4 | 0.08 | 0.08 | 0.08 | 91 | 1012.7 |
| 20260509181732 | 25 | 15 | 3.2 | 9.7 | 0.08 | 0.08 | 0.08 | 91 | 1012.9 |
| 20260509181229 | 25 | 17 | 3.2 | 9.7 | 0.08 | 0.08 | 0.08 | 92 | 1012.9 |
| 20260509180728 | 25 | 76 | 3.2 | 9.7 | 0.05 | 0.05 | 0.05 | 91 | 1012.8 |
| 20260509180228 | 25 | 59 | 3.2 | 9.7 | 0.05 | 0.05 | 0.05 | 89 | 1012.8 |
| 20260509175728 | 26 | 71 | 3.2 | 14.5 | 0.03 | 0.03 | 0.03 | 87 | 1013.0 |
| 20260509175228 | 26 | 26 | 3.2 | 14.5 | 0.00 | 0.00 | 0.00 | 85 | 1013.0 |
| 20260509174727 | 26 | 250 | 3.2 | 14.5 | 0.00 | 0.00 | 0.00 | 83 | 1013.0 |
| 20260509174228 | 27 | 238 | 4.8 | 14.5 | 0.00 | 0.00 | 0.00 | 80 | 1012.5 |
| 20260509173728 | 27 | 221 | 3.2 | 9.7 | 0.00 | 0.00 | 0.00 | 78 | 1013.0 |
| 20260509173228 | 27 | 165 | 4.8 | 12.9 | 0.00 | 0.00 | 0.00 | 77 | 1013.4 |
| 20260509172728 | 27 | 166 | 8.0 | 14.5 | 0.00 | 0.00 | 0.00 | 78 | 1013.2 |
| 20260509172228 | 27 | 150 | 8.0 | 16.1 | 0.00 | 0.00 | 0.00 | 79 | 1013.2 |
| 20260509171728 | 27 | 155 | 8.0 | 16.1 | 0.00 | 0.00 | 0.00 | 78 | 1013.4 |
| 20260509171228 | 27 | 128 | 8.0 | 17.7 | 0.00 | 0.00 | 0.00 | 80 | 1013.6 |
| 20260509170728 | 27 | 124 | 9.7 | 17.7 | 0.00 | 0.00 | 0.00 | 81 | 1013.4 |
| 20260509170228 | 27 | 163 | 8.0 | 16.1 | 0.00 | 0.00 | 0.00 | 80 | 1013.5 |
| 20260509165946 | 27 | 113 | 6.4 | 16.1 | 0.00 | 0.00 | 0.00 | 79 | 1013.4 |
| 20260509165224 | 27 | 217 | 6.4 | 16.1 | 0.00 | 0.00 | 0.00 | 80 | 1013.3 |
| 20260509164720 | 27 | 190 | 8.0 | 16.1 | 0.00 | 0.00 | 0.00 | 81 | 1013.3 |
| 20260509164220 | 27 | 211 | 8.0 | 19.3 | 0.00 | 0.00 | 0.00 | 79 | 1013.3 |
| 20260509163719 | 27 | 186 | 8.0 | 19.3 | 0.00 | 0.00 | 0.00 | 81 | 1013.4 |
| 20260509163219 | 27 | 188 | 9.7 | 17.7 | 0.00 | 0.00 | 0.00 | 80 | 1013.5 |
| 20260509162712 | 28 | 176 | 9.7 | 17.7 | 0.00 | 0.00 | 0.00 | 81 | 1013.5 |
| 20260509162209 | 27 | 141 | 9.7 | 19.3 | 0.00 | 0.00 | 0.00 | 81 | 1013.6 |
| 20260509161708 | 27 | 175 | 8.0 | 19.3 | 0.00 | 0.00 | 0.00 | 81 | 1013.5 |
| 20260509161432 | 28 | 198 | 6.4 | 19.3 | 0.00 | 0.00 | 0.00 | 82 | 1013.4 |
| 20260509160709 | 27 | 200 | 8.0 | 19.3 | 0.00 | 0.00 | 0.00 | 81 | 1013.4 |
| 20260509160208 | 28 | 188 | 8.0 | 17.7 | 0.00 | 0.00 | 0.00 | 77 | 1013.2 |
| 20260509155709 | 28 | 241 | 6.4 | 17.7 | 0.00 | 0.00 | 0.00 | 75 | 1013.0 |
| 20260509155209 | 28 | 227 | 6.4 | 20.9 | 0.00 | 0.00 | 0.00 | 76 | 1013.0 |
| 20260509154709 | 28 | 225 | 6.4 | 20.9 | 0.00 | 0.00 | 0.00 | 76 | 1012.9 |
| 20260509154208 | 28 | 235 | 6.4 | 16.1 | 0.00 | 0.00 | 0.00 | 78 | 1012.7 |
| 20260509153705 | 27 | 212 | 6.4 | 16.1 | 0.00 | 0.00 | 0.00 | 79 | 1012.6 |
| 20260509153204 | 27 | 218 | 6.4 | 16.1 | 0.00 | 0.00 | 0.00 | 79 | 1012.4 |
| 20260509152704 | 27 | 237 | 6.4 | 14.5 | 0.00 | 0.00 | 0.00 | 79 | 1012.4 |
| 20260509152204 | 27 | 210 | 6.4 | 12.9 | 0.00 | 0.00 | 0.00 | 82 | 1012.4 |
| 20260509151704 | 27 | 239 | 6.4 | 12.9 | 0.00 | 0.00 | 0.00 | 82 | 1012.6 |
| 20260509151430 | 26 | 258 | 6.4 | 12.9 | 0.00 | 0.00 | 0.00 | 83 | 1012.6 |
| 20260509150933 | 26 | 242 | 6.4 | 11.3 | 0.00 | 0.00 | 0.00 | 83 | 1012.7 |
| 20260509150204 | 26 | 223 | 6.4 | 14.5 | 0.00 | 0.00 | 0.00 | 84 | 1012.6 |
| 20260509145702 | 26 | 161 | 6.4 | 14.5 | 0.00 | 0.00 | 0.00 | 83 | 1012.6 |
| 20260509145202 | 26 | 219 | 6.4 | 12.9 | 0.00 | 0.00 | 0.00 | 85 | 1012.5 |
| 20260509144944 | 26 | 185 | 8.0 | 17.7 | 0.00 | 0.00 | 0.00 | 85 | 1012.5 |
| 20260509144203 | 26 | 205 | 8.0 | 17.7 | 0.00 | 0.00 | 0.00 | 86 | 1012.5 |
| 20260509143703 | 26 | 180 | 9.7 | 16.1 | 0.00 | 0.00 | 0.00 | 86 | 1012.4 |
| 20260509143204 | 25 | 205 | 8.0 | 16.1 | 0.00 | 0.00 | 0.00 | 86 | 1012.4 |
| 20260509142702 | 25 | 160 | 6.4 | 12.9 | 0.00 | 0.00 | 0.00 | 87 | 1012.4 |
| 20260509142203 | 25 | 165 | 6.4 | 12.9 | 0.00 | 0.00 | 0.00 | 88 | 1012.4 |
| 20260509141703 | 25 | 161 | 6.4 | 12.9 | 0.00 | 0.00 | 0.00 | 88 | 1012.4 |
| 20260509141203 | 25 | 194 | 6.4 | 11.3 | 0.00 | 0.00 | 0.00 | 88 | 1012.3 |
| 20260509140703 | 25 | 180 | 6.4 | 14.5 | 0.00 | 0.00 | 0.00 | 89 | 1012.1 |
| 20260509140204 | 24 | 194 | 6.4 | 14.5 | 0.00 | 0.00 | 0.00 | 90 | 1012.1 |
| 20260509135703 | 24 | 200 | 6.4 | 12.9 | 0.00 | 0.00 | 0.00 | 90 | 1012.0 |
| 20260509135204 | 24 | 161 | 6.4 | 14.5 | 0.00 | 0.00 | 0.00 | 93 | 1012.0 |
| 20260509134703 | 23 | 186 | 6.4 | 22.5 | 0.00 | 0.00 | 0.00 | 94 | 1012.1 |
| 20260509134432 | 23 | 202 | 9.7 | 22.5 | 0.00 | 0.00 | 0.00 | 95 | 1011.9 |
| 20260509133704 | 23 | 165 | 9.7 | 22.5 | 0.00 | 0.00 | 0.00 | 96 | 1011.7 |
| 20260509133204 | 22 | 176 | 8.0 | 22.5 | 0.00 | 0.00 | 0.00 | 97 | 1011.6 |
| 20260509132703 | 22 | 177 | 6.4 | 17.7 | 0.00 | 0.00 | 0.00 | 97 | 1011.6 |
| 20260509132432 | 22 | 168 | 6.4 | 17.7 | 0.00 | 0.00 | 0.00 | 97 | 1011.1 |
| 20260509131704 | 22 | 182 | 4.8 | 14.5 | 0.00 | 0.00 | 0.00 | 98 | 1011.2 |
| 20260509131203 | 22 | 196 | 4.8 | 14.5 | 0.00 | 0.00 | 0.00 | 98 | 1011.7 |
| 20260509130714 | 22 | 165 | 4.8 | 14.5 | 0.00 | 0.00 | 0.00 | 98 | 1011.7 |
| 20260509130211 | 21 | 163 | 4.8 | 16.1 | 0.00 | 0.00 | 0.00 | 98 | 1011.7 |
| 20260509125709 | 21 | 179 | 8.0 | 16.1 | 0.00 | 0.00 | 0.00 | 98 | 1011.8 |
| 20260509125207 | 21 | 194 | 8.0 | 16.1 | 0.00 | 0.00 | 0.00 | 98 | 1011.6 |
| 20260509124709 | 21 | 187 | 8.0 | 16.1 | 0.00 | 0.00 | 0.00 | 98 | 1011.5 |
| 20260509124205 | 21 | 193 | 6.4 | 12.9 | 0.00 | 0.00 | 0.00 | 98 | 1011.5 |
| 20260509123721 | 21 | 158 | 4.8 | 12.9 | 0.00 | 0.00 | 0.00 | 98 | 1012.0 |
| 20260509123203 | 21 | 173 | 4.8 | 9.7 | 0.00 | 0.00 | 0.00 | 98 | 1012.3 |
| 20260509122703 | 21 | 157 | 4.8 | 9.7 | 0.00 | 0.00 | 0.00 | 98 | 1012.2 |
| 20260509122203 | 21 | 193 | 3.2 | 8.0 | 0.00 | 0.00 | 0.00 | 98 | 1012.4 |
| 20260509121718 | 21 | 236 | 1.6 | 4.8 | 0.00 | 0.00 | 0.00 | 98 | 1012.5 |
| 20260509121714 | 21 | 229 | 1.6 | 4.8 | 0.00 | 0.00 | 0.00 | 98 | 1012.6 |
| 20260509120656 | 21 | 338 | 1.6 | 4.8 | 0.00 | 0.00 | 0.00 | 98 | 1012.5 |
| 20260509120156 | 21 | 340 | 0.0 | 4.8 | 0.00 | 0.00 | 0.00 | 98 | 1012.6 |
| 20260509115917 | 21 | 340 | 1.6 | 8.0 | 0.00 | 0.00 | 0.00 | 98 | 1012.5 |
| 20260509115151 | 21 | 339 | 3.2 | 8.0 | 0.00 | 0.00 | 0.00 | 98 | 1012.7 |
| 20260509114651 | 21 | 331 | 3.2 | 8.0 | 0.00 | 0.00 | 0.00 | 98 | 1012.9 |
| 20260509114151 | 21 | 327 | 0.0 | 8.0 | 0.00 | 0.00 | 0.00 | 98 | 1012.9 |
| 20260509113650 | 21 | 335 | 0.0 | 0.0 | 0.00 | 0.00 | 0.00 | 98 | 1013.0 |
| 20260509113149 | 21 | 336 | 0.0 | 0.0 | 0.00 | 0.00 | 0.00 | 98 | 1013.2 |
| 20260509112646 | 21 | 336 | 0.0 | 0.0 | 0.00 | 0.00 | 0.00 | 98 | 1013.2 |
| 20260509112147 | 21 | 336 | 0.0 | 0.0 | 0.00 | 0.00 | 0.00 | 98 | 1013.3 |
| 20260509111645 | 21 | 336 | 0.0 | 0.0 | 0.00 | 0.00 | 0.00 | 98 | 1013.3 |
| 20260509111142 | 21 | 336 | 0.0 | 0.0 | 0.00 | 0.00 | 0.00 | 98 | 1013.3 |
| 20260509110643 | 21 | 336 | 0.0 | 0.0 | 0.00 | 0.00 | 0.00 | 98 | 1013.5 |
| 20260509110142 | 21 | 336 | 0.0 | 0.0 | 0.00 | 0.00 | 0.00 | 98 | 1013.5 |
| 20260509105642 | 21 | 336 | 0.0 | 0.0 | 0.00 | 0.00 | 0.00 | 98 | 1013.5 |
| 20260509105141 | 21 | 336 | 0.0 | 3.2 | 0.00 | 0.00 | 0.00 | 98 | 1013.7 |
| 20260509104641 | 21 | 336 | 0.0 | 3.2 | 0.00 | 0.00 | 0.00 | 98 | 1013.7 |
| 20260509104141 | 21 | 335 | 1.6 | 8.0 | 0.00 | 0.00 | 0.00 | 98 | 1014.0 |
| 20260509103637 | 21 | 336 | 1.6 | 8.0 | 0.00 | 0.00 | 0.00 | 98 | 1013.8 |
| 20260509103401 | 21 | 318 | 1.6 | 6.4 | 0.00 | 0.00 | 0.00 | 98 | 1013.9 |
| 20260509102635 | 21 | 338 | 0.0 | 3.2 | 0.00 | 0.00 | 0.00 | 98 | 1013.8 |
| 20260509102135 | 21 | 340 | 0.0 | 3.2 | 0.00 | 0.00 | 0.00 | 98 | 1013.8 |
| 20260509101634 | 21 | 340 | 0.0 | 4.8 | 0.00 | 0.00 | 0.00 | 98 | 1013.7 |
| 20260509101134 | 21 | 340 | 0.0 | 4.8 | 0.00 | 0.00 | 0.00 | 98 | 1013.7 |
| 20260509100635 | 21 | 340 | 1.6 | 6.4 | 0.00 | 0.00 | 0.00 | 98 | 1013.5 |
| 20260509100131 | 21 | 340 | 1.6 | 6.4 | 0.00 | 0.00 | 0.00 | 98 | 1013.5 |
| 20260509095632 | 21 | 340 | 1.6 | 6.4 | 0.00 | 0.00 | 0.00 | 98 | 1013.4 |
| 20260509095130 | 21 | 339 | 1.6 | 6.4 | 0.00 | 0.00 | 0.00 | 98 | 1013.2 |
| 20260509094630 | 21 | 351 | 3.2 | 6.4 | 0.00 | 0.00 | 0.00 | 98 | 1012.8 |
| 20260509094131 | 21 | 355 | 3.2 | 6.4 | 0.00 | 0.00 | 0.00 | 97 | 1012.8 |
| 20260509093630 | 21 | 335 | 1.6 | 4.8 | 0.00 | 0.00 | 0.00 | 97 | 1012.8 |
| 20260509093130 | 21 | 304 | 0.0 | 4.8 | 0.00 | 0.00 | 0.00 | 97 | 1012.7 |
| 20260509092630 | 21 | 266 | 0.0 | 0.0 | 0.00 | 0.00 | 0.00 | 97 | 1012.4 |
| 20260509092130 | 21 | 265 | 0.0 | 0.0 | 0.00 | 0.00 | 0.00 | 97 | 1012.0 |
| 20260509091630 | 21 | 265 | 0.0 | 0.0 | 0.00 | 0.00 | 0.00 | 97 | 1011.9 |
| 20260509091352 | 21 | 265 | 0.0 | 0.0 | 0.00 | 0.00 | 0.00 | 97 | 1011.9 |
| 20260509090630 | 21 | 265 | 0.0 | 0.0 | 0.00 | 0.00 | 0.00 | 97 | 1012.0 |
| 20260509090130 | 21 | 265 | 0.0 | 0.0 | 0.00 | 0.00 | 0.00 | 97 | 1012.1 |
| 20260509085630 | 21 | 265 | 0.0 | 0.0 | 0.00 | 0.00 | 0.00 | 97 | 1012.0 |
| 20260509085130 | 21 | 265 | 0.0 | 0.0 | 0.00 | 0.00 | 0.00 | 97 | 1012.0 |
| 20260509084631 | 22 | 265 | 0.0 | 0.0 | 0.00 | 0.00 | 0.00 | 97 | 1012.1 |
| 20260509084356 | 22 | 265 | 0.0 | 0.0 | 0.00 | 0.00 | 0.00 | 97 | 1012.2 |
| 20260509083629 | 22 | 269 | 0.0 | 0.0 | 0.00 | 0.00 | 0.00 | 97 | 1012.4 |
| 20260509083134 | 22 | 269 | 0.0 | 0.0 | 0.00 | 0.00 | 0.00 | 97 | 1012.4 |
| 20260509083128 | 22 | 325 | 0.0 | 0.0 | 0.00 | 0.00 | 0.00 | 97 | 1012.5 |
| 20260509082130 | 22 | 327 | 0.0 | 0.0 | 0.00 | 0.00 | 0.00 | 97 | 1012.6 |
| 20260509081627 | 22 | 327 | 0.0 | 0.0 | 0.00 | 0.00 | 0.00 | 97 | 1012.5 |
| 20260509081342 | 21 | 327 | 0.0 | 0.0 | 0.00 | 0.00 | 0.00 | 97 | 1012.4 |
| 20260509080616 | 21 | 329 | 0.0 | 0.0 | 0.00 | 0.00 | 0.00 | 97 | 1012.6 |
| 20260509080110 | 21 | 333 | 0.0 | 0.0 | 0.00 | 0.00 | 0.00 | 96 | 1012.6 |
| 20260509075610 | 21 | 333 | 0.0 | 0.0 | 0.00 | 0.00 | 0.00 | 96 | 1012.5 |
| 20260509075109 | 21 | 333 | 0.0 | 0.0 | 0.00 | 0.00 | 0.00 | 96 | 1012.5 |
| 20260509074605 | 21 | 333 | 0.0 | 0.0 | 0.00 | 0.00 | 0.00 | 96 | 1012.7 |
| 20260509074105 | 21 | 332 | 0.0 | 0.0 | 0.00 | 0.00 | 0.00 | 97 | 1012.9 |
| 20260509073604 | 21 | 332 | 0.0 | 0.0 | 0.00 | 0.00 | 0.00 | 97 | 1013.0 |
| 20260509073104 | 21 | 332 | 0.0 | 0.0 | 0.00 | 0.00 | 0.00 | 97 | 1012.8 |
| 20260509072604 | 21 | 332 | 0.0 | 0.0 | 0.00 | 0.00 | 0.00 | 97 | 1012.6 |
| 20260509072322 | 21 | 331 | 0.0 | 0.0 | 0.00 | 0.00 | 0.00 | 97 | 1012.8 |
| 20260509071603 | 21 | 332 | 0.0 | 0.0 | 0.00 | 0.00 | 0.00 | 96 | 1012.9 |
| 20260509071104 | 21 | 332 | 0.0 | 0.0 | 0.00 | 0.00 | 0.00 | 96 | 1013.2 |
| 20260509070821 | 21 | 332 | 0.0 | 0.0 | 0.00 | 0.00 | 0.00 | 96 | 1012.9 |
| 20260509070324 | 21 | 332 | 0.0 | 0.0 | 0.00 | 0.00 | 0.00 | 96 | 1013.0 |
| 20260509065602 | 21 | 332 | 0.0 | 0.0 | 0.00 | 0.00 | 0.00 | 96 | 1012.7 |
| 20260509065104 | 21 | 332 | 0.0 | 0.0 | 0.00 | 0.00 | 0.00 | 96 | 1012.7 |
| 20260509064603 | 21 | 332 | 0.0 | 0.0 | 0.00 | 0.00 | 0.00 | 96 | 1012.7 |
| 20260509064104 | 21 | 332 | 0.0 | 0.0 | 0.00 | 0.00 | 0.00 | 96 | 1012.9 |
| 20260509063604 | 21 | 332 | 0.0 | 0.0 | 0.00 | 0.00 | 0.00 | 96 | 1012.9 |
| 20260509063105 | 21 | 332 | 0.0 | 1.6 | 0.00 | 0.00 | 0.00 | 96 | 1012.9 |
| 20260509062558 | 21 | 332 | 0.0 | 6.4 | 0.00 | 0.00 | 0.00 | 97 | 1013.0 |
| 20260509062100 | 21 | 331 | 1.6 | 6.4 | 0.00 | 0.00 | 0.00 | 97 | 1012.9 |
| 20260509061556 | 21 | 332 | 1.6 | 6.4 | 0.00 | 0.00 | 0.00 | 97 | 1013.3 |
| 20260509061055 | 21 | 333 | 3.2 | 6.4 | 0.00 | 0.00 | 0.00 | 97 | 1013.0 |
| 20260509060812 | 21 | 342 | 3.2 | 6.4 | 0.00 | 0.00 | 0.00 | 97 | 1012.7 |
| 20260509060050 | 21 | 321 | 3.2 | 6.4 | 0.00 | 0.00 | 0.00 | 96 | 1012.7 |
| 20260509055549 | 21 | 248 | 3.2 | 6.4 | 0.00 | 0.00 | 0.00 | 96 | 1012.8 |
| 20260509055323 | 21 | 244 | 3.2 | 6.4 | 0.00 | 0.00 | 0.00 | 96 | 1012.8 |
| 20260509054545 | 21 | 243 | 3.2 | 6.4 | 0.00 | 0.00 | 0.00 | 96 | 1012.7 |
| 20260509054532 | 21 | 225 | 1.6 | 6.4 | 0.00 | 0.00 | 0.00 | 96 | 1012.5 |
| 20260509053543 | 21 | 146 | 0.0 | 3.2 | 0.00 | 0.00 | 0.00 | 96 | 1012.1 |
| 20260509053300 | 21 | 146 | 0.0 | 1.6 | 0.00 | 0.00 | 0.00 | 95 | 1011.9 |
| 20260509052542 | 21 | 146 | 0.0 | 1.6 | 0.00 | 0.00 | 0.00 | 95 | 1011.6 |
| 20260509052038 | 21 | 146 | 0.0 | 1.6 | 0.00 | 0.00 | 0.00 | 94 | 1011.4 |
| 20260509051538 | 21 | 146 | 0.0 | 3.2 | 0.00 | 0.00 | 0.00 | 94 | 1011.3 |
| 20260509051038 | 21 | 146 | 1.6 | 3.2 | 0.00 | 0.00 | 0.00 | 94 | 1011.2 |
| 20260509050538 | 21 | 146 | 1.6 | 4.8 | 0.00 | 0.00 | 0.00 | 94 | 1011.2 |
| 20260509050036 | 21 | 146 | 1.6 | 4.8 | 0.00 | 0.00 | 0.00 | 94 | 1011.2 |
| 20260509045534 | 21 | 142 | 3.2 | 6.4 | 0.00 | 0.00 | 0.00 | 94 | 1011.2 |